sat.trackr.live / text

‹ back to catalog

STARLINK-4316

NORAD 53471 · 2022-099G

PAYLOAD ACTIVE UNKNOWN

§ Identity

Operator
Country
US
Launch date
2022-08-12
Launch site
AFWTR
Launch vehicle
Mass (kg)
RCS (m²)

Purposes: comms

External: N2YO · Heavens-Above · Gunter

§ Orbital elements

Epoch: 2026-09-19T13:31:16.615200Z

Period
93.91 min
Inclination
97.2851°
Eccentricity
0.0000952
Mean motion
15.33436468 rev/d
Perigee alt
464.9 km
Apogee alt
466.2 km
Semi-major
6,843.7 km
B*
2.6037e-5
RAAN
20.2535°
Arg perigee
87.0583°
Mean anomaly
273.0769°
Rev number
22,540

§ Raw data

STARLINK-43161 53471U 22099G   26262.56338675  .00000765  00000+0  26037-4 0  99922 53471  97.2851  20.2535 0000952  87.0583 273.0769 15.33436468225408

JSON: /api/v1/satellites/53471 · /tle

For live sub-satellite position, see the globe view (requires WebGL).

§ Visibility from observer

Set your observer location to see the next 7 days of passes ≥ 10°. The values pass through the URL so the page stays shareable.

No JS? Fill the form by hand. The geolocation button needs JavaScript.